Vorticity
11 11 8 8 7 6 6 8 9 9 8 8 5 5 5 6 7 7 6 8 10 8
9 7 8 7 6 6 7 9 9 8 8 7 6 8 10 8 8 7 8 10 8 11
7 9 7 7 6 7 9 9 8 6 6 8 8 8 8 8 8 9 10 9 10 11
8 7 7 6 7 8 7 8 7 5 6 7 8 8 8 9 9 9 8 10 10 8
9 7 5 7 8 7 7 7 5 6 7 8 8 9 9 8 8 8 9 10 10 9
6 6 6 7 7 7 6 6 7 8 8 9 10 8 8 8 9 11 9 10 10 10
5 6 7 6 7 6 6 7 8 8 10 9 7 9 9 10 9 9 9 9 9 7
6 7 7 7 7 7 7 8 9 10 8 9 10 9 9 9 8 10 8 7 7 7
5 7 7 8 7 7 9 9 11 9 10 9 9 7 6 10 9 7 7 6 6 5
7 7 9 7 7 10 10 11 10 10 9 7 5 8 8 8 6 5 5 5 5 5
9 9 8 7 10 11 10 10 9 8 6 7 8 6 8 4 5 7 6 5 5 4
7 10 8 10 12 10 10 9 6 6 6 7 5 7 5 5 7 5 5 5 7 5
9 10 9 12 11 9 8 6 5 5 6 6 7 7 6 7 7 6 6 6 6 5
10 9 12 11 9 8 6 5 4 4 5 5 5 6 6 5 6 5 6 7 7 6
Height
5792 5792 5793 5793 5794 5794 5794 5794 5793 5792 5791 5790 5788 5787 5785 5782 5780 5777 5772 5768 5764 5760
5785 5785 5786 5786 5787 5788 5788 5787 5787 5785 5784 5783 5781 5780 5777 5775 5771 5767 5763 5759 5754 5750
5776 5778 5779 5780 5781 5781 5782 5781 5780 5779 5777 5776 5774 5771 5769 5766 5762 5757 5753 5749 5745 5741
5769 5771 5772 5773 5774 5774 5774 5773 5772 5771 5769 5767 5765 5762 5760 5757 5752 5749 5745 5741 5736 5731
5762 5763 5765 5766 5766 5766 5766 5765 5765 5763 5761 5759 5757 5754 5752 5748 5744 5740 5736 5732 5727 5722
5754 5755 5756 5758 5758 5758 5758 5758 5757 5755 5753 5751 5749 5747 5744 5740 5736 5732 5728 5723 5719 5713
5745 5747 5748 5750 5750 5750 5750 5749 5748 5747 5746 5744 5742 5739 5735 5732 5728 5724 5720 5715 5710 5704
5737 5739 5741 5742 5742 5742 5742 5741 5741 5740 5739 5737 5734 5731 5727 5724 5721 5716 5712 5707 5702 5696
5729 5731 5733 5734 5735 5735 5734 5734 5733 5733 5731 5729 5726 5723 5720 5717 5713 5709 5704 5699 5694 5688
5721 5723 5725 5726 5727 5727 5727 5727 5727 5726 5724 5721 5718 5716 5714 5711 5706 5701 5697 5692 5686 5679
5714 5716 5717 5718 5719 5719 5720 5720 5720 5718 5716 5713 5712 5710 5707 5703 5698 5694 5689 5684 5678 5670
5706 5708 5709 5710 5711 5712 5712 5713 5712 5711 5709 5708 5706 5704 5699 5695 5691 5686 5681 5675 5668 5661
5698 5700 5701 5702 5703 5704 5706 5705 5705 5704 5702 5701 5699 5694 5691 5688 5682 5678 5672 5666 5659 5650
5690 5691 5693 5695 5696 5698 5698 5698 5698 5697 5696 5693 5690 5688 5685 5679 5674 5669 5663 5656 5648 5640